Location: Banff
(51.1667°N, 115.5667°W)
Time: 15:32:01
(UTC+00:00)

Altair - Pass Details

Date: 04 December 2020
Orbit: 1501 x 1682 km, 47.2° (Epoch: 15 January)

Event Time Altitude Azimuth Distance (km) Brightness Sun altitude
Rises 04:27:17 0° 248° (WSW) 4,729 10.5 -44.1°
Reaches altitude 10° 04:30:24 10° 246° (WSW) 3,724 9.8 -44.6°
Enters shadow 04:34:59 33° 237° (WSW) 2,357 8.5 -45.2°
